"Collar_ID","LMT_Date","LMT_Time","DT","Longitude","Latitude","state","V","angle","S","Phi"
82443,"3/10/2019","10:00:25","2019-03-10 10:00:00",1386603.68779485,3710839.371265,3,455.567605930012,0.284086410913484,455.567605930012,2.8890727752274
82443,"3/10/2019","11:00:06","2019-03-10 11:00:00",1386585.62672641,3710825.79239977,3,22.5961893679761,-5.3859937187831,22.5961893679761,-2.4969209435557
82443,"3/10/2019","15:01:05","2019-03-10 15:00:00",1385926.54325566,3709899.33528095,3,44.716830101629,1.07267386744818,44.716830101629,-1.15101708285059
82443,"3/10/2019","16:00:10","2019-03-10 16:00:00",1385935.53527422,3709933.3501688,3,35.779690628156,2.46337009825376,35.1833624510201,1.31235301540317
82443,"3/10/2019","17:00:04","2019-03-10 17:00:00",1385941.8270779,3709936.39812647,3,6.99119728143383,-0.86123633856124,6.99119728143382,0.451116676841927
82443,"3/10/2019","18:01:09","2019-03-10 18:00:00",1385937.66234042,3710011.85682555,3,74.3346318349628,1.17481598786758,75.5735423655456,1.62593266470951
82443,"3/10/2019","19:01:04","2019-03-10 19:00:00",1385929.81794893,3709927.01630819,3,85.2023935372905,-3.28892729451503,85.2023935372905,-1.66299462980552
82443,"3/10/2019","20:00:17","2019-03-10 20:00:00",1385937.26689614,3709914.71439887,3,14.6251214735461,0.636660503699322,14.381369448987,-1.0263341261062
82443,"3/10/2019","21:00:06","2019-03-10 21:00:00",1385882.50437947,3709951.91724457,3,66.204115884239,3.57119560536514,66.204115884239,2.54486147925894
82443,"3/10/2019","22:00:36","2019-03-10 22:00:00",1385917.8405766,3709934.76785302,3,39.2778367312087,-2.99669691940089,39.2778367312087,-0.451835440141948
82443,"3/10/2019","23:00:04","2019-03-10 23:00:00",1385573.31943461,3710188.16124758,3,427.671637694199,2.95927534341598,427.671637694199,2.50743990327404
82443,"3/11/2019","0:00:14","2019-03-11 00:00:00",1385218.18997835,3710201.05194584,3,355.363336324067,0.597870090652358,355.363336324067,3.10530999392639
82443,"3/11/2019","3:00:10","2019-03-11 03:00:00",1385352.48558256,3710913.74531213,3,12.6677521193645,0.462193482415813,12.6677521193645,1.83895094363239
82443,"3/11/2019","4:00:05","2019-03-11 04:00:00",1385112.71431169,3711117.45437737,3,314.623021409501,0.598381381230714,314.623021409501,2.4373323248631
82443,"3/11/2019","9:00:10","2019-03-11 09:00:00",1384175.29550661,3712723.45435255,3,204.651669088803,-5.46899358545246,204.651669088803,-2.5225418125417
82443,"3/11/2019","10:00:23","2019-03-11 10:00:00",1384394.74495476,3712222.88881082,2,546.556421471554,1.36491362554514,546.556421471554,-1.15762818699656
82443,"3/11/2019","11:01:03","2019-03-11 11:00:00",1384354.47247923,3712236.98199899,2,41.9677409620853,3.9625942074847,42.6672033114533,2.80496602048813
82443,"3/11/2019","12:00:24","2019-03-11 12:00:00",1384414.27805851,3712201.28192613,3,70.8310926195064,-3.34312915897368,69.6505744091814,-0.538163138485541
82443,"3/11/2019","16:00:36","2019-03-11 16:00:00",1384365.0194145,3712251.99505076,3,393.472818363243,3.29268078569111,386.914938057189,1.52477929331844
82443,"3/11/2019","17:00:10","2019-03-11 17:00:00",1384369.3396028,3712239.14878383,2,13.5532505682441,-2.77115823465427,13.5532505682441,-1.24637894133583
82443,"3/11/2019","18:01:00","2019-03-11 18:00:00",1384382.43208468,3712227.73295887,3,17.0857340522789,0.52928613164439,17.3704962864836,-0.717092809691441
82443,"3/11/2019","19:00:36","2019-03-11 19:00:00",1384338.15789606,3712158.02622814,2,83.9782798373321,-1.41956801297151,82.5786418400433,-2.13666082266295
82443,"3/11/2019","20:01:10","2019-03-11 20:00:00",1384301.01945021,3712234.37192246,3,83.5077286765406,4.16020699446008,84.8995241544829,2.02354617179713
82443,"3/12/2019","1:00:34","2019-03-12 01:00:00",1386395.8692215,3710813.95221578,3,300.687606363447,-0.574494918975646,295.67614625739,-1.10681431783122
82443,"3/12/2019","2:00:57","2019-03-12 02:00:00",1386135.82230876,3711055.23260446,3,354.740218731561,3.50042501425474,354.740218731561,2.39361069642352
82443,"3/12/2019","14:01:08","2019-03-12 14:00:00",1388239.77978634,3710792.94214263,3,1266.79410302032,2.38116962059544,1266.79410302032,1.78282091056754
82443,"3/12/2019","15:00:36","2019-03-12 15:00:00",1388015.87499533,3711064.67109482,3,358.061397499344,0.477180446675023,352.093707541022,2.26000135724257
82443,"3/12/2019","16:00:23","2019-03-12 16:00:00",1388033.01308811,3711021.15314449,3,46.7709976909958,-3.45563313259064,46.7709976909958,-1.19563177534808
82443,"3/12/2019","17:01:03","2019-03-12 17:00:00",1388010.71266312,3711037.34270811,3,27.1056505949982,3.70927708084611,27.5574114382482,2.51364530549803
82443,"3/12/2019","18:01:09","2019-03-12 18:00:00",1387465.92949106,3711481.12787477,3,702.662065795779,-0.0556381390318843,702.662065795779,2.45800716646615
82443,"3/12/2019","19:00:35","2019-03-12 19:00:00",1387286.25407886,3711540.1092857,3,192.313825101856,0.366402032224273,189.108594683492,2.82440919869042
82443,"3/12/2019","20:00:12","2019-03-12 20:00:00",1387281.47165169,3711522.34891325,2,18.3929997333157,-4.65824164942397,18.3929997333157,-1.83383245073355
82443,"3/12/2019","21:00:59","2019-03-12 21:00:00",1387285.08332797,3711541.12616177,3,19.1214347684597,3.21460623767635,19.1214347684597,1.3807737869428
82443,"3/12/2019","22:00:40","2019-03-12 22:00:00",1386843.21882461,3711670.78705641,3,460.495588393035,1.47539086937889,460.495588393035,2.85616465632169
82443,"3/12/2019","23:00:33","2019-03-12 23:00:00",1386292.70569504,3711283.46815506,2,673.112648203685,-5.38464621868248,673.112648203685,-2.52848156236079
82443,"3/13/2019","0:00:18","2019-03-13 00:00:00",1386283.74775326,3711307.09710848,3,25.269985372312,4.46164583138745,25.269985372312,1.93316426902667
82443,"3/13/2019","1:00:53","2019-03-13 01:00:00",1386239.25825445,3710912.15764706,3,397.437408515073,-3.61613660213723,397.437408515073,-1.68297233311056
82443,"3/13/2019","2:00:07","2019-03-13 02:00:00",1386240.14791727,3710930.85345629,3,18.7169650981716,3.20621831360067,18.7169650981716,1.52324598049012
82443,"3/13/2019","3:00:36","2019-03-13 03:00:00",1386242.19449828,3710900.72472413,3,30.1981621172267,-3.02621861307941,30.1981621172267,-1.50297263258929
82443,"3/13/2019","4:00:06","2019-03-13 04:00:00",1386228.09906846,3710893.50054393,3,15.8388737420113,-1.16500718519698,15.8388737420113,-2.66797981778627
82443,"3/13/2019","5:00:37","2019-03-13 05:00:00",1386241.28105992,3710901.20321221,3,15.2674817019053,3.19679956169819,15.2674817019053,0.52881974391192
82443,"3/13/2019","6:00:10","2019-03-13 06:00:00",1385848.4182927,3711056.80686749,3,422.556092617208,2.23565354944618,422.556092617208,2.7644732933581
82443,"3/13/2019","7:00:31","2019-03-13 07:00:00",1384559.52569627,3711642.77491085,1,1415.83991784241,-0.0495774290414119,1415.83991784241,2.71489586431669
82443,"3/13/2019","8:01:09","2019-03-13 08:00:00",1384417.51299281,3712867.80883172,1,1213.02088414295,-1.02868915980412,1233.23789887866,1.68620670451257
82443,"3/13/2019","12:00:11","2019-03-13 12:00:00",1385829.22090485,3711631.71102095,2,29.1195454591033,-1.93067695437845,28.6342197014516,-2.63556609663452
82443,"3/13/2019","13:00:34","2019-03-13 13:00:00",1385817.35519696,3711628.23180616,3,12.365272309008,-0.220805225501186,12.365272309008,-2.85637132213571
82443,"3/13/2019","14:00:21","2019-03-13 14:00:00",1385830.90334816,3711619.41039315,3,16.1669331799322,2.27921222722963,16.1669331799322,-0.577159094906078
82443,"3/13/2019","15:00:04","2019-03-13 15:00:00",1385826.3881433,3711632.60976537,2,13.9502867982567,2.4775547449954,13.9502867982567,1.90039565008932
82443,"3/13/2019","16:01:10","2019-03-13 16:00:00",1385810.46551508,3711631.83949152,2,15.679916788557,-4.99364993895178,15.9412487350329,-3.09325428886246
82443,"3/13/2019","17:00:35","2019-03-13 17:00:00",1385828.35896198,3711608.16205084,2,30.1812389122505,2.16960798772109,29.678218263713,-0.923646301141366
82443,"3/13/2019","18:00:39","2019-03-13 18:00:00",1385882.43737343,3711556.556058,3,74.7506058973391,0.161638227506698,74.7506058973391,-0.762008073634668
82443,"3/13/2019","21:00:11","2019-03-13 21:00:00",1385854.46594921,3711634.21054347,3,42.9148071726903,-1.9804249085878,42.9148071726903,0.433255869021926
82443,"3/13/2019","22:00:35","2019-03-13 22:00:00",1385806.23031386,3711639.70275331,3,48.5473056596624,2.59496296838234,48.5473056596624,3.02821883740427
82443,"3/13/2019","23:01:10","2019-03-13 23:00:00",1385814.14583327,3711652.47634024,3,14.7809581931046,-2.01218609975483,15.027307496323,1.01603273764944
82443,"3/14/2019","0:01:10","2019-03-14 00:00:00",1386226.01247285,3711015.64117478,2,758.414897505054,-2.01274914848919,758.414897505054,-0.996716410839748
82443,"3/14/2019","6:01:06","2019-03-14 06:00:00",1384897.13837792,3711451.8961711,3,277.415208855793,-0.475289237383988,282.038795670055,1.68627930352499
82443,"3/14/2019","7:00:11","2019-03-14 07:00:00",1384293.33550984,3712546.86173872,2,1271.6043371825,0.388461665386278,1250.4109315628,2.07474096891126
82443,"3/14/2019","14:00:17","2019-03-14 14:00:00",1386361.17088935,3711055.41980064,2,19.3775617423611,-0.244154292530578,19.3775617423611,-1.08042054959735
82443,"3/14/2019","15:00:19","2019-03-14 15:00:00",1386362.38269289,3711072.86373995,3,17.4859797112051,2.58185984614136,17.4859797112051,1.501439296544
82443,"3/14/2019","16:01:05","2019-03-14 16:00:00",1386365.35981255,3711059.33255293,3,13.6276998492731,-2.85566709509079,13.8548281800943,-1.35422779854679
82443,"3/14/2019","17:00:05","2019-03-14 17:00:00",1386383.60199265,3711047.88345031,3,21.9024285554394,0.793748798225325,21.5373880795154,-0.560479000321468
82443,"3/14/2019","18:00:09","2019-03-14 18:00:00",1386379.11673829,3711050.10346338,3,5.0045943618534,3.24246567801453,5.0045943618534,2.68198667769306
82443,"3/14/2019","19:00:36","2019-03-14 19:00:00",1386380.45260257,3711059.06082372,3,9.0564252083536,-1.25923513804111,9.0564252083536,1.42275153965195
82443,"3/14/2019","20:00:12","2019-03-14 20:00:00",1386378.97367187,3711053.11411329,3,6.1278545085567,-3.23730006499031,6.1278545085567,-1.81454852533837
82443,"3/14/2019","21:00:23","2019-03-14 21:00:00",1386352.18300719,3711070.17717095,3,31.7629918325649,4.38902807688062,31.7629918325649,2.57447955154225
82443,"3/14/2019","22:00:36","2019-03-14 22:00:00",1386383.19384572,3711050.07176461,2,36.9580772004838,-3.14968327843684,36.9580772004838,-0.575203726894589
82443,"3/14/2019","23:00:07","2019-03-14 23:00:00",1386384.05151961,3711045.55279278,3,4.59964247745243,-0.808029452379908,4.59964247745243,-1.3832331792745
82443,"3/15/2019","0:00:04","2019-03-15 00:00:00",1386608.79549528,3710960.01325037,3,240.47217700767,1.01955426586172,240.47217700767,-0.363678913412773
82443,"3/15/2019","4:01:06","2019-03-15 04:00:00",1384784.32604167,3711256.00701828,1,916.629735656129,5.62167428190414,931.906897917063,2.63415545299853
82443,"3/15/2019","5:01:09","2019-03-15 05:00:00",1384578.93372411,3711310.03178438,2,212.378622900127,0.250231166318826,212.378622900127,2.88438661931735
82443,"3/15/2019","15:00:17","2019-03-15 15:00:00",1382354.43603478,3712426.08748709,3,31.8273631785746,3.88425728400827,31.8273631785746,1.04817598892684
82443,"3/15/2019","16:00:41","2019-03-15 16:00:00",1382354.40648178,3712391.8722692,2,34.2152306560431,-2.61983605404976,34.2152306560431,-1.57166006512292
82443,"3/15/2019","19:00:19","2019-03-15 19:00:00",1382356.7822699,3712393.17894085,3,23.4714923919123,-3.0417095532146,23.0803008520467,-0.411026238997292
82443,"3/15/2019","20:00:04","2019-03-15 20:00:00",1382352.37016084,3712400.1162395,2,8.22148520700719,2.54829159502268,8.22148520700719,2.13726535602538
82443,"3/15/2019","21:00:33","2019-03-15 21:00:00",1382339.19466911,3712407.50268436,3,15.1047393233466,0.493367075266927,15.1047393233466,2.63063243129231
82443,"3/15/2019","22:00:24","2019-03-15 22:00:00",1382468.25018488,3712067.46950398,3,363.700274831373,-3.83868550848288,363.700274831373,-1.20805307719057
82443,"3/15/2019","23:00:11","2019-03-15 23:00:00",1382206.37275955,3710754.03494757,3,1339.28716856317,-0.559546131236384,1339.28716856317,-1.76759920842696
82443,"3/16/2019","3:01:07","2019-03-16 03:00:00",1385257.86130405,3710423.29790547,3,162.268989290534,-0.135429408350448,162.268989290534,-0.236255444530264
82443,"3/16/2019","4:01:10","2019-03-16 04:00:00",1385093.39497182,3710375.39880356,3,171.299440747659,-2.62193676833968,171.299440747659,-2.85819221286995
82443,"3/16/2019","5:00:33","2019-03-16 05:00:00",1385255.3916876,3710429.63662175,3,173.730745459776,3.18126950046696,170.835233035444,0.32307728759702
82443,"3/16/2019","6:00:43","2019-03-16 06:00:00",1385270.45995428,3710518.52959367,3,90.1610399011829,1.07980494941235,90.1610399011829,1.40288223700937
82443,"3/16/2019","7:01:10","2019-03-16 07:00:00",1385261.97334915,3710578.73270846,3,59.8016406454708,0.307957544926165,60.7983346562294,1.71083978193554
82443,"3/16/2019","10:00:36","2019-03-16 10:00:00",1385336.46575953,3710562.8661785,3,18.9807478180503,3.11741100963034,18.6644020210826,2.90162646106258
82443,"3/16/2019","11:00:15","2019-03-16 11:00:00",1385435.1683981,3710587.65394024,3,101.767597955812,-2.65557913722176,101.767597955812,0.246047323840823
82443,"3/16/2019","12:01:03","2019-03-16 12:00:00",1385349.15868704,3710540.64598515,3,96.4105951960477,-2.88745521840982,98.0174384493165,-2.641407894569
82443,"3/16/2019","13:00:21","2019-03-16 13:00:00",1385474.08928837,3710306.20063184,3,270.157052550351,1.56021376513802,265.654435007841,-1.08119412943098
82443,"3/16/2019","14:00:11","2019-03-16 14:00:00",1385462.18249136,3710310.39575181,3,12.6242166735197,3.88403788542595,12.6242166735197,2.80284375599497
82443,"3/16/2019","15:01:06","2019-03-16 15:00:00",1385976.06815838,3710095.57921182,3,547.847329798478,-3.19879085904766,556.97811862846,-0.395947103052683
82443,"3/16/2019","16:00:33","2019-03-16 16:00:00",1386029.2507822,3710123.95572342,3,61.3011844702032,0.886086603685374,60.2794980623657,0.490139500632691
82443,"3/16/2019","17:00:21","2019-03-16 17:00:00",1386028.6847746,3710117.53062325,2,6.44998269184036,-2.14880219732353,6.44998269184036,-1.65866269669084
82443,"3/16/2019","18:00:22","2019-03-16 18:00:00",1386032.52884718,3710115.91493501,3,4.16981324627756,1.26077429180987,4.16981324627756,-0.397888404880975
82443,"3/16/2019","19:00:35","2019-03-16 19:00:00",1386022.13819272,3710123.89004793,3,13.098401663411,2.88485640451839,13.098401663411,2.48696799963741
82443,"3/16/2019","20:00:10","2019-03-16 20:00:00",1386025.36126614,3710126.27540876,2,4.00975666566871,-1.84984023403736,4.00975666566871,0.637127765600053
82443,"3/16/2019","21:00:10","2019-03-16 21:00:00",1386057.28558885,3710130.41896721,3,32.192102411114,-0.508056177838449,32.192102411114,0.129071587761604
82443,"3/16/2019","22:01:05","2019-03-16 22:00:00",1386028.97300729,3710129.26956565,2,27.8713800013097,-3.23008967428276,28.3359030013319,-3.10101808652116
82443,"3/16/2019","23:00:04","2019-03-16 23:00:00",1386175.95493693,3710271.377345,2,207.911538800692,3.86955750897442,204.446346487345,0.768539422453258
82443,"3/17/2019","0:01:05","2019-03-17 00:00:00",1387285.00674324,3711124.42701111,1,1376.23733982048,-0.112881812474032,1399.1746288175,0.655657609979225
82443,"3/17/2019","1:00:13","2019-03-17 01:00:00",1386715.57268175,3711388.9412848,2,638.513657770028,2.05107100422515,627.871763473852,2.70672861420437
82443,"3/17/2019","10:01:00","2019-03-17 10:00:00",1385405.4409552,3710564.14332535,2,24.5380765409954,-3.58088752295654,24.5380765409954,-3.12170474272867
82443,"3/17/2019","11:00:04","2019-03-17 11:00:00",1385249.6130328,3710308.99562467,3,304.036658285669,1.00263207012656,298.96938064757,-2.11907267260212
82443,"3/17/2019","12:00:25","2019-03-17 12:00:00",1385003.98907944,3709731.19989272,2,627.836789564016,0.146316621058985,627.836789564016,-1.97275605154313
82443,"3/17/2019","13:01:05","2019-03-17 13:00:00",1384926.12619672,3709682.04242676,3,90.5724068913961,-0.605695637673452,92.0819470062539,-2.57845168921658
82443,"3/17/2019","14:00:05","2019-03-17 14:00:00",1384725.3305147,3710132.07538774,3,501.149170293656,4.56892064457675,492.796684122088,1.99046895536017
82443,"3/17/2019","15:00:10","2019-03-17 15:00:00",1384933.27242467,3710374.54601525,2,319.424236909112,-1.12856023136228,319.424236909112,0.86190872399789
82443,"3/17/2019","16:00:34","2019-03-17 16:00:00",1384921.18285752,3710343.37480959,2,33.4335414852362,-2.80268845219802,33.4335414852362,-1.94077972820013
82443,"3/17/2019","17:00:19","2019-03-17 17:00:00",1384911.9439999,3710356.558908,2,16.0989732917822,4.12281031813305,16.0989732917822,2.18203058993292
82443,"3/17/2019","20:00:45","2019-03-17 20:00:00",1384923.64943064,3710354.87386734,2,14.2789420077339,3.00427027786346,14.2789420077339,2.69525296501681
82443,"3/17/2019","21:00:10","2019-03-17 21:00:00",1384953.59998712,3710363.01513294,2,31.037332992855,-2.42984229669322,31.037332992855,0.265410668323589
82443,"3/17/2019","22:01:10","2019-03-17 22:00:00",1385338.2029806,3710234.33698519,3,398.909795518586,-0.588277373635433,405.558292110568,-0.322866705311844
82443,"3/17/2019","23:01:10","2019-03-17 23:00:00",1385986.85543276,3709750.01033662,3,809.519799763044,-0.318497144131296,809.519799763044,-0.64136384944314
82443,"3/18/2019","5:00:13","2019-03-18 05:00:00",1386222.00016076,3710983.95788808,3,28.8935060088373,-0.362358976604892,28.8935060088373,1.40134843093034
82443,"3/18/2019","9:01:10","2019-03-18 09:00:00",1386212.7390144,3710948.57975716,3,8.78086071588663,0.0744976332965852,8.92720839448486,-1.77049950209526
82443,"3/18/2019","10:00:34","2019-03-18 10:00:00",1386209.88174893,3710962.56027417,2,14.5113627581181,3.54289437356898,14.2695067121492,1.77239487147372
82443,"3/18/2019","11:00:11","2019-03-18 11:00:00",1386176.19162598,3711174.54531314,3,214.645477778163,-0.043989781510789,214.645477778163,1.72840508996293
82443,"3/18/2019","12:01:10","2019-03-18 12:00:00",1386030.68575724,3711908.45465261,1,735.92892868858,0.0381144763828292,748.194410833399,1.76651956634576
82443,"3/18/2019","16:00:19","2019-03-18 16:00:00",1385522.08945279,3711328.24258199,3,27.188107853349,0.646131142052042,27.188107853349,-1.66560167172793
82443,"3/18/2019","17:00:06","2019-03-18 17:00:00",1385495.9066629,3711291.31913523,2,45.264549124285,-0.522008664284734,45.264549124285,-2.18761033601267
82443,"3/18/2019","22:00:10","2019-03-18 22:00:00",1385236.6904334,3711102.36586034,2,10.7897224350595,3.92405200968166,10.7897224350595,1.42949900602327
82443,"3/18/2019","23:00:10","2019-03-18 23:00:00",1385248.93836583,3711064.52610137,2,39.7725936792609,-2.68725876643181,39.7725936792609,-1.25775976040854
82443,"3/19/2019","4:00:24","2019-03-19 04:00:00",1382133.41135336,3710709.33673715,2,1051.49477668389,-4.93958766290475,1033.96986373914,-2.01154550703264
82443,"3/19/2019","5:01:10","2019-03-19 05:00:00",1383030.66723103,3709867.0747471,3,1210.46499841663,1.25775125986271,1230.63941505692,-0.753794247169935
82443,"3/19/2019","6:01:11","2019-03-19 06:00:00",1383785.70090218,3709701.04551889,1,773.072796823901,0.537342708467548,773.072796823901,-0.216451538702387
82443,"3/19/2019","7:01:03","2019-03-19 07:00:00",1385163.71412855,3710854.06749616,3,1796.76935975087,0.91318976614625,1796.76935975087,0.696738227443863
82443,"3/19/2019","8:00:13","2019-03-19 08:00:00",1385907.14873911,3710598.12422416,3,799.584624136816,-1.02830052684774,786.258213734525,-0.331562299403875
82443,"3/19/2019","9:01:10","2019-03-19 09:00:00",1386313.21550201,3710795.71348237,3,444.184927996801,0.784426924560281,451.588010130087,0.452864625156406
82443,"3/19/2019","12:00:35","2019-03-19 12:00:00",1385713.31841344,3710355.29560567,3,216.000625253217,4.95905899610076,212.400614832328,2.73117700805551
82443,"3/19/2019","13:00:07","2019-03-19 13:00:00",1385686.79600941,3710356.70478174,3,26.5598134842245,0.357334020878716,26.5598134842245,3.08851102893422
82443,"3/19/2019","14:00:04","2019-03-19 14:00:00",1385698.77832064,3710351.68502595,3,12.9912944138475,-3.48522955517806,12.9912944138475,-0.396718526243837
82443,"3/19/2019","15:00:57","2019-03-19 15:00:00",1385695.69651459,3710341.44440654,3,10.6942888666714,-1.46639622398984,10.6942888666714,-1.86311475023367
82443,"3/19/2019","16:00:12","2019-03-19 16:00:00",1385697.01428548,3710347.71332511,3,6.40592383029785,3.22672058510646,6.40592383029785,1.36360583487279
82443,"3/19/2019","22:00:33","2019-03-19 22:00:00",1387167.53109847,3707476.34517821,3,40.7858267042751,-1.98711137739768,40.1060629258699,-2.95395499755063
82443,"3/19/2019","23:00:20","2019-03-19 23:00:00",1387204.11264486,3707619.82927557,3,148.073953590815,4.27511748646767,148.073953590815,1.32116248891705
82443,"3/20/2019","0:01:09","2019-03-20 00:00:00",1387521.22028981,3707876.4299284,3,401.235713094068,-0.640842349429674,407.922974978974,0.680320139487373
82443,"3/20/2019","11:00:04","2019-03-20 11:00:00",1386658.58523998,3711335.30058165,3,76.4710344543419,-0.28931935223058,76.4710344543419,1.97100174831437
82443,"3/20/2019","12:00:36","2019-03-20 12:00:00",1386388.5019139,3711663.94983822,3,425.388454090206,0.287686426712812,425.388454090206,2.25868817502718
82443,"3/20/2019","15:00:29","2019-03-20 15:00:00",1386366.61747961,3711669.7597621,3,17.2873210342855,-0.0828979952439557,17.2873210342855,2.86246004068254
82443,"3/20/2019","16:00:30","2019-03-20 16:00:00",1386386.72806516,3711667.53068533,3,20.2337449458266,-2.9728504055646,20.2337449458266,-0.11039036488206
82443,"3/20/2019","17:01:06","2019-03-20 17:00:00",1386022.53769419,3711608.86758772,3,362.83749441017,-2.87149600179163,368.884785983677,-2.98188636667369
82443,"3/20/2019","18:01:10","2019-03-20 18:00:00",1386029.41278709,3711602.52722763,3,9.35238304426416,2.23692883526629,9.35238304426416,-0.744957531407402
82443,"3/20/2019","19:00:33","2019-03-20 19:00:00",1386025.60294753,3711605.42730604,3,4.86919377855198,3.23591478515908,4.78804054890939,2.49095725375168
82443,"3/20/2019","20:00:57","2019-03-20 20:00:00",1385953.76075462,3711664.08581517,3,92.7476219387975,-0.0340804981169822,92.7476219387975,2.4568767556347
82443,"3/20/2019","21:00:12","2019-03-20 21:00:00",1385894.8541746,3711550.59872836,3,127.864397091307,-4.50645197613212,127.864397091307,-2.04957522049742
82443,"3/20/2019","22:00:33","2019-03-20 22:00:00",1385878.36909098,3711546.15750922,3,17.072855925103,-0.828857132190127,17.072855925103,-2.87843235268755
82443,"3/20/2019","23:00:17","2019-03-20 23:00:00",1385957.37943232,3711470.30391342,3,109.528087885256,2.11341536063041,109.528087885256,-0.765016992057139
82443,"3/21/2019","0:00:30","2019-03-21 00:00:00",1384840.66292839,3711315.70034355,3,1127.36773679923,-2.23900536905419,1127.36773679923,-3.00402236111133
82443,"3/22/2019","10:00:23","2019-03-22 10:00:00",1386537.04490458,3710416.49164417,3,636.320926166877,-0.785388906145268,636.320926166877,-1.03625702845965
82443,"3/22/2019","11:00:08","2019-03-22 11:00:00",1387018.34490311,3711219.19902213,3,935.942745691314,2.06693108996243,935.942745691314,1.03067406150278
82443,"3/22/2019","12:00:35","2019-03-22 12:00:00",1386343.76228414,3711281.88894408,2,677.489288572914,2.01825331876243,677.489288572914,3.04892738026521
82443,"3/22/2019","13:00:11","2019-03-22 13:00:00",1386307.17241317,3711252.21613734,3,47.1093845929391,-5.50913369835046,47.1093845929391,-2.46020631808525
82443,"3/22/2019","14:00:35","2019-03-22 14:00:00",1386280.62800667,3711258.53319564,3,27.2857241430595,5.36816412082298,27.2857241430595,2.90795780273773
82443,"3/22/2019","15:00:57","2019-03-22 15:00:00",1386282.05100296,3711262.50766037,3,4.22152678230253,-1.68097614855989,4.22152678230253,1.22698165417784
82443,"3/22/2019","16:00:04","2019-03-22 16:00:00",1386246.01544995,3711283.81712355,3,41.8647142841531,1.3805793838325,41.8647142841531,2.60756103801034